N4DWK Weather Reports


Display with metric or nautical units.
time (UTC)temp
F
wind
direction
speed
MPH
gust
MPH
rain 1hr
in
rain 24hr
in
rain mn
in
humidity
%
barometer
mb
20260904172006 95 15 2.0 5.0 0.00 0.00 0.00 60 1013.6
20260904171507 95 183 1.0 5.0 0.00 0.00 0.00 61 1013.5
20260904171007 93 217 2.0 5.0 0.00 0.00 0.00 61 1013.5
20260904170506 94 127 1.0 5.0 0.00 0.00 0.00 62 1013.5
20260904170007 93 328 0.0 5.0 0.00 0.00 0.00 62 1013.5
20260904165507 93 355 2.0 5.0 0.00 0.00 0.00 61 1013.6
20260904165007 93 31 2.0 9.0 0.00 0.00 0.00 62 1013.6
20260904164506 93 355 2.0 9.0 0.00 0.00 0.00 61 1013.6
20260904164007 93 5 2.0 6.0 0.00 0.00 0.00 63 1013.6
20260904163506 92 254 2.0 6.0 0.00 0.00 0.00 65 1013.6
20260904163006 92 4 2.0 6.0 0.00 0.00 0.00 64 1013.8
20260904162507 92 350 2.0 7.0 0.00 0.00 0.00 65 1013.9
20260904162006 92 114 2.0 7.0 0.00 0.00 0.00 65 1013.9
20260904161505 92 17 0.0 6.0 0.00 0.00 0.00 67 1013.9
20260904161006 92 15 2.0 6.0 0.00 0.00 0.00 65 1013.9
20260904160506 92 12 1.0 8.0 0.00 0.00 0.00 66 1013.9
20260904160006 92 43 4.0 8.0 0.00 0.00 0.00 65 1014.1
20260904155506 92 355 2.0 6.0 0.00 0.00 0.00 66 1014.1
20260904155006 92 8 2.0 5.0 0.00 0.00 0.00 68 1014.2
20260904154506 91 313 1.0 6.0 0.00 0.00 0.00 66 1014.3
20260904154006 91 286 2.0 6.0 0.00 0.00 0.00 67 1014.2
20260904153507 91 7 1.0 8.0 0.00 0.00 0.00 67 1014.1
20260904153006 90 21 3.0 8.0 0.00 0.00 0.00 67 1014.2
20260904152506 90 354 3.0 7.0 0.00 0.00 0.00 68 1014.2
20260904152005 90 307 2.0 7.0 0.00 0.00 0.00 69 1014.1
20260904151506 89 336 1.0 7.0 0.00 0.00 0.00 71 1014.1
20260904151006 89 5 2.0 5.0 0.00 0.00 0.00 71 1014.1
20260904150506 89 259 1.0 5.0 0.00 0.00 0.00 73 1014.2
20260904150005 89 224 3.0 5.0 0.00 0.00 0.00 73 1014.1
20260904145506 88 219 2.0 3.0 0.00 0.00 0.00 73 1014.2
20260904145005 88 270 1.0 3.0 0.00 0.00 0.00 74 1014.1
20260904144505 88 217 1.0 3.0 0.00 0.00 0.00 74 1014.2
20260904144006 88 251 2.0 3.0 0.00 0.00 0.00 74 1014.0
20260904143506 87 295 0.0 3.0 0.00 0.00 0.00 74 1014.1
20260904143005 87 293 2.0 3.0 0.00 0.00 0.00 74 1014.0
20260904142507 87 211 2.0 3.0 0.00 0.00 0.00 75 1014.0
20260904142005 87 326 1.0 3.0 0.00 0.00 0.00 76 1014.0
20260904141505 87 209 1.0 3.0 0.00 0.00 0.00 76 1014.0
20260904141006 87 206 2.0 3.0 0.00 0.00 0.00 76 1014.1
20260904140506 86 221 1.0 3.0 0.00 0.00 0.00 77 1014.0
20260904140005 86 248 1.0 3.0 0.00 0.00 0.00 77 1014.1
20260904135505 85 5 2.0 7.0 0.00 0.00 0.00 78 1014.0
20260904135006 85 10 3.0 7.0 0.00 0.00 0.00 79 1013.9
20260904134506 85 338 1.0 3.0 0.00 0.00 0.00 79 1013.9
20260904134006 85 232 1.0 3.0 0.00 0.00 0.00 79 1013.8
20260904133506 84 232 2.0 5.0 0.00 0.00 0.00 79 1013.7
20260904133006 84 209 2.0 5.0 0.00 0.00 0.00 79 1013.7
20260904132506 84 260 2.0 3.0 0.00 0.00 0.00 80 1013.7
20260904132006 84 235 1.0 3.0 0.00 0.00 0.00 80 1013.7
20260904131505 83 244 0.0 3.0 0.00 0.00 0.00 81 1013.7
20260904131005 83 242 0.0 3.0 0.00 0.00 0.00 81 1013.7
20260904130506 83 242 1.0 3.0 0.00 0.00 0.00 82 1013.8
20260904130006 83 240 1.0 5.0 0.00 0.00 0.00 81 1013.9
20260904125506 83 221 1.0 5.0 0.00 0.00 0.00 82 1014.0
20260904125005 82 221 2.0 5.0 0.00 0.00 0.00 82 1013.9
20260904124505 82 231 1.0 3.0 0.00 0.00 0.00 83 1013.9
20260904124005 82 223 0.0 3.0 0.00 0.00 0.00 84 1013.9
20260904123505 81 223 1.0 3.0 0.00 0.00 0.00 84 1013.9
20260904123006 81 224 1.0 3.0 0.00 0.00 0.00 85 1014.0
20260904122507 81 223 0.0 6.0 0.00 0.00 0.00 86 1013.9
20260904122005 80 223 2.0 6.0 0.00 0.00 0.00 86 1014.0
20260904121505 80 211 1.0 6.0 0.00 0.00 0.00 87 1014.2
20260904121007 79 205 1.0 5.0 0.00 0.00 0.00 87 1014.1
20260904120506 79 215 2.0 5.0 0.00 0.00 0.00 88 1014.0
20260904120006 78 221 2.0 5.0 0.00 0.00 0.00 89 1013.9
20260904115505 78 196 2.0 3.0 0.00 0.00 0.00 90 1013.8
20260904115005 78 196 1.0 3.0 0.00 0.00 0.00 90 1013.8
20260904114505 78 196 1.0 3.0 0.00 0.00 0.00 91 1013.8
20260904114006 77 179 0.0 3.0 0.00 0.00 0.00 91 1013.8
20260904113505 77 160 1.0 2.0 0.00 0.00 0.00 92 1013.8
20260904113005 77 150 0.0 0.0 0.00 0.00 0.00 92 1013.8
20260904112506 77 150 0.0 0.0 0.00 0.00 0.00 92 1013.8
20260904112006 77 150 0.0 0.0 0.00 0.00 0.00 91 1013.8
20260904111506 77 150 0.0 0.0 0.00 0.00 0.00 91 1013.8
20260904111006 77 150 0.0 0.0 0.00 0.00 0.00 91 1013.8
20260904110506 77 150 0.0 0.0 0.00 0.00 0.00 91 1013.8
20260904110005 77 150 0.0 0.0 0.00 0.00 0.00 91 1013.8
20260904105506 77 150 0.0 0.0 0.00 0.00 0.00 91 1013.7
20260904105006 77 150 0.0 0.0 0.00 0.00 0.00 91 1013.8
20260904104506 77 150 0.0 0.0 0.00 0.00 0.00 91 1013.8
20260904104006 77 150 0.0 0.0 0.00 0.00 0.00 90 1013.7
20260904103505 77 150 0.0 0.0 0.00 0.00 0.00 90 1013.6
20260904103005 77 150 0.0 0.0 0.00 0.00 0.00 90 1013.7
20260904102506 77 150 0.0 0.0 0.00 0.00 0.00 90 1013.6
20260904102006 77 150 0.0 0.0 0.00 0.00 0.00 90 1013.6
20260904101505 77 150 0.0 0.0 0.00 0.00 0.00 90 1013.6
20260904101006 77 150 0.0 0.0 0.00 0.00 0.00 89 1013.7
20260904100506 77 150 0.0 0.0 0.00 0.00 0.00 89 1013.7
20260904100005 78 150 0.0 0.0 0.00 0.00 0.00 89 1013.7
20260904095505 78 150 0.0 0.0 0.00 0.00 0.00 89 1013.7
20260904095006 78 150 0.0 0.0 0.00 0.00 0.00 88 1013.7
20260904094505 78 150 0.0 0.0 0.00 0.00 0.00 88 1013.7
20260904094005 78 150 0.0 0.0 0.00 0.00 0.00 88 1013.7
20260904093505 78 150 0.0 0.0 0.00 0.00 0.00 88 1013.8
20260904093005 78 150 0.0 0.0 0.00 0.00 0.00 87 1013.9
20260904092506 78 150 0.0 0.0 0.00 0.00 0.00 87 1013.8
20260904092005 78 150 0.0 0.0 0.00 0.00 0.00 87 1013.9
20260904091506 78 150 0.0 0.0 0.00 0.00 0.00 87 1014.0
20260904091006 78 150 0.0 0.0 0.00 0.00 0.00 86 1014.0
20260904090506 78 150 0.0 0.0 0.00 0.00 0.00 86 1014.0
20260904090005 79 150 0.0 0.0 0.00 0.00 0.00 86 1014.0
20260904085505 79 150 0.0 0.0 0.00 0.00 0.00 86 1014.0
20260904085006 79 150 0.0 0.0 0.00 0.00 0.00 86 1013.9
20260904084506 79 150 0.0 0.0 0.00 0.00 0.00 85 1014.0
20260904084006 79 150 0.0 0.0 0.00 0.00 0.00 85 1013.8
20260904083506 79 150 0.0 0.0 0.00 0.00 0.00 85 1013.8
20260904083006 79 150 0.0 0.0 0.00 0.00 0.00 85 1013.8
20260904082505 79 150 0.0 0.0 0.00 0.00 0.00 84 1013.7
20260904082005 79 150 0.0 0.0 0.00 0.00 0.00 84 1013.7
20260904081506 79 150 0.0 0.0 0.00 0.00 0.00 84 1013.6
20260904081005 79 150 0.0 0.0 0.00 0.00 0.00 84 1013.7
20260904080505 80 150 0.0 0.0 0.00 0.00 0.00 84 1013.7
20260904080005 80 150 0.0 0.0 0.00 0.00 0.00 83 1013.7
20260904075505 80 150 0.0 0.0 0.00 0.00 0.00 84 1013.6
20260904075006 80 150 0.0 0.0 0.00 0.00 0.00 83 1013.4
20260904074505 80 150 0.0 0.0 0.00 0.00 0.00 83 1013.4
20260904074005 80 150 0.0 0.0 0.00 0.00 0.00 83 1013.4
20260904073505 80 150 0.0 0.0 0.00 0.00 0.00 82 1013.4
20260904073005 81 150 0.0 0.0 0.00 0.00 0.00 82 1013.3
20260904072505 81 150 0.0 0.0 0.00 0.00 0.00 82 1013.2
20260904072005 81 150 0.0 0.0 0.00 0.00 0.00 82 1013.3
20260904071505 81 150 0.0 0.0 0.00 0.00 0.00 81 1013.3
20260904071006 81 150 0.0 0.0 0.00 0.00 0.00 81 1013.4
20260904070505 81 150 0.0 0.0 0.00 0.00 0.00 81 1013.3
20260904070006 81 150 0.0 0.0 0.00 0.00 0.00 80 1013.2
20260904065505 82 150 0.0 5.0 0.00 0.00 0.00 80 1013.3
20260904065005 82 151 1.0 5.0 0.00 0.00 0.00 80 1013.3
20260904064505 82 133 2.0 5.0 0.00 0.00 0.00 81 1013.4
20260904064005 82 126 1.0 5.0 0.00 0.00 0.00 81 1013.5
20260904063506 82 40 2.0 6.0 0.00 0.00 0.00 81 1013.6
20260904063005 82 128 1.0 7.0 0.00 0.00 0.00 81 1013.4
20260904062505 83 51 1.0 7.0 0.00 0.00 0.00 82 1013.4
20260904062005 83 58 1.0 5.0 0.00 0.00 0.00 82 1013.9
20260904061504 83 37 1.0 8.0 0.00 0.00 0.00 82 1014.0
20260904061006 83 335 2.0 8.0 0.00 0.00 0.00 81 1014.1
20260904060505 83 4 3.0 13.0 0.00 0.00 0.00 81 1014.3
20260904060005 84 26 1.0 13.0 0.00 0.00 0.00 80 1014.0
20260904055507 84 0 7.0 13.0 0.00 0.00 0.00 79 1014.8
20260904055005 84 252 0.0 3.0 0.00 0.00 0.00 78 1013.8
20260904054505 84 220 0.0 3.0 0.00 0.00 0.00 77 1013.5
20260904054005 84 220 2.0 3.0 0.00 0.00 0.00 77 1013.5
20260904053506 85 220 0.0 3.0 0.00 0.00 0.00 77 1013.5
20260904053005 85 301 1.0 3.0 0.00 0.00 0.00 77 1013.4
20260904052505 85 237 2.0 3.0 0.00 0.00 0.00 76 1013.4
20260904052005 85 209 2.0 3.0 0.00 0.00 0.00 77 1013.5
20260904051505 85 209 2.0 3.0 0.00 0.00 0.00 77 1013.5
20260904051006 85 209 2.0 3.0 0.00 0.00 0.00 77 1013.6
20260904050505 85 229 1.0 3.0 0.00 0.00 0.00 77 1013.6
20260904050005 85 211 1.0 3.0 0.00 0.00 0.00 78 1013.8
20260904045505 85 211 1.0 3.0 0.00 0.00 0.00 78 1013.9
20260904045005 85 213 2.0 3.0 0.00 0.00 0.00 78 1013.8
20260904044505 85 217 2.0 3.0 0.00 0.00 0.00 78 1013.8
20260904044005 85 223 1.0 3.0 0.00 0.00 0.00 79 1013.8
20260904043505 84 227 1.0 3.0 0.00 0.00 0.00 79 1013.8
20260904043005 84 227 0.0 3.0 0.00 0.00 0.00 79 1013.8
20260904042505 84 227 2.0 3.0 0.00 0.00 0.00 80 1013.7
20260904042005 84 233 1.0 3.0 0.00 0.00 0.00 80 1013.8
20260904041504 84 261 1.0 3.0 0.00 0.00 0.00 81 1013.9
20260904041005 84 81 0.0 0.0 0.00 0.00 0.00 81 1013.9
20260904040505 84 81 0.0 0.0 0.00 0.00 0.00 80 1013.9
20260904040005 84 81 0.0 0.0 0.00 0.00 0.00 80 1013.9
20260904035504 84 81 0.0 0.0 0.00 0.00 0.00 80 1014.0
20260904035005 84 81 0.0 0.0 0.00 0.00 0.00 80 1013.9
20260904034505 84 81 0.0 0.0 0.00 0.00 0.00 80 1013.9
20260904034005 84 81 0.0 0.0 0.00 0.00 0.00 81 1014.0
20260904033505 84 81 0.0 0.0 0.00 0.00 0.00 81 1014.2
20260904033005 84 81 0.0 0.0 0.00 0.00 0.00 81 1014.3
20260904032505 84 81 0.0 1.0 0.00 0.00 0.00 82 1014.4
20260904032005 84 81 0.0 2.0 0.00 0.00 0.00 82 1014.2
20260904031505 84 81 1.0 2.0 0.00 0.00 0.00 82 1014.1
20260904031005 84 81 0.0 0.0 0.00 0.00 0.00 82 1014.1
20260904030504 84 81 0.0 1.0 0.00 0.00 0.00 83 1014.1
20260904030005 84 81 0.0 2.0 0.00 0.00 0.00 83 1014.1
20260904025505 84 81 0.0 2.0 0.00 0.00 0.00 83 1014.1
20260904025005 84 81 0.0 2.0 0.00 0.00 0.00 83 1014.0
20260904024504 84 81 1.0 2.0 0.00 0.00 0.00 83 1013.9
20260904024004 84 81 0.0 2.0 0.00 0.00 0.00 83 1014.1
20260904023505 84 81 0.0 3.0 0.00 0.00 0.00 83 1014.0
20260904023004 85 80 0.0 3.0 0.00 0.00 0.00 83 1014.0
20260904022505 85 80 0.0 2.0 0.00 0.00 0.00 83 1014.0
20260904022006 85 80 1.0 2.0 0.00 0.00 0.00 83 1014.0
20260904021506 85 80 0.0 1.0 0.00 0.00 0.00 83 1013.8
20260904021006 85 80 0.0 0.0 0.00 0.00 0.00 83 1013.9
20260904020505 85 80 0.0 0.0 0.00 0.00 0.00 83 1014.0
20260904020005 85 80 0.0 0.0 0.00 0.00 0.00 83 1014.0
20260904015505 85 80 0.0 0.0 0.00 0.00 0.00 82 1014.2
20260904015005 85 80 0.0 0.0 0.00 0.00 0.00 82 1014.3
20260904014505 85 80 0.0 0.0 0.00 0.00 0.00 82 1014.3
20260904014005 85 80 0.0 0.0 0.00 0.00 0.00 82 1014.3
20260904013505 85 80 0.0 0.0 0.00 0.00 0.00 82 1014.4
20260904013005 85 80 0.0 0.0 0.00 0.00 0.00 81 1014.3
20260904012505 85 80 0.0 0.0 0.00 0.00 0.00 81 1014.4
20260904012005 86 80 0.0 0.0 0.00 0.00 0.00 81 1014.5
20260904011505 86 80 0.0 0.0 0.00 0.00 0.00 81 1014.5
20260904011004 86 80 0.0 0.0 0.00 0.00 0.00 81 1014.5
20260904010506 86 80 0.0 0.0 0.00 0.00 0.00 81 1014.6
20260904010005 86 80 0.0 0.0 0.00 0.00 0.00 81 1014.6
20260904005504 86 80 0.0 0.0 0.00 0.00 0.00 81 1014.7
20260904005005 86 80 0.0 0.0 0.00 0.00 0.00 80 1014.7
20260904004504 86 80 0.0 0.0 0.00 0.00 0.00 80 1014.6
20260904004007 87 80 0.0 0.0 0.00 0.00 0.00 79 1014.5
20260904003505 87 80 0.0 0.0 0.00 0.00 0.00 79 1014.6
20260904003004 87 80 0.0 0.0 0.00 0.00 0.00 79 1014.6
20260904002504 87 80 0.0 0.0 0.00 0.00 0.00 78 1014.5
20260904002006 87 80 0.0 0.0 0.00 0.00 0.00 78 1014.3
20260904001504 88 80 0.0 0.0 0.00 0.00 0.00 77 1014.3
20260904001005 88 80 0.0 0.0 0.00 0.00 0.00 77 1014.3
20260904000505 88 80 0.0 0.0 0.00 0.00 0.00 77 1014.1
20260904000004 88 80 0.0 0.0 0.00 0.00 0.00 76 1014.0
20260903235506 88 80 0.0 0.0 0.00 0.00 0.00 76 1014.0
20260903235005 88 80 0.0 0.0 0.00 0.00 0.00 76 1013.8
20260903234504 88 80 0.0 0.0 0.00 0.00 0.00 75 1013.7
20260903234005 88 80 0.0 0.0 0.00 0.00 0.00 75 1013.8
20260903233504 88 80 0.0 1.0 0.00 0.00 0.00 75 1013.8
20260903233005 89 80 0.0 1.0 0.00 0.00 0.00 75 1013.7
20260903232505 89 207 0.0 0.0 0.00 0.00 0.00 74 1013.7
20260903232005 89 207 0.0 0.0 0.00 0.00 0.00 74 1013.7
20260903231505 89 207 0.0 0.0 0.00 0.00 0.00 74 1013.7
20260903231005 89 207 0.0 0.0 0.00 0.00 0.00 73 1013.6
20260903230504 89 207 0.0 0.0 0.00 0.00 0.00 74 1013.5
20260903230005 89 207 0.0 0.0 0.00 0.00 0.00 73 1013.4
20260903225505 89 207 0.0 0.0 0.00 0.00 0.00 72 1013.5
20260903225004 90 207 0.0 0.0 0.00 0.00 0.00 72 1013.5
20260903224505 90 207 0.0 0.0 0.00 0.00 0.00 72 1013.5
20260903224005 90 207 0.0 0.0 0.00 0.00 0.00 71 1013.4
20260903223504 91 207 0.0 0.0 0.00 0.00 0.00 70 1013.5
20260903223005 91 207 0.0 0.0 0.00 0.00 0.00 69 1013.5
20260903222505 91 207 0.0 0.0 0.00 0.00 0.00 68 1013.5
20260903222005 92 207 0.0 1.0 0.00 0.00 0.00 67 1013.4
20260903221504 92 207 0.0 1.0 0.00 0.00 0.00 65 1013.5
20260903221005 93 207 0.0 0.0 0.00 0.00 0.00 65 1013.5
20260903220504 94 207 0.0 0.0 0.00 0.00 0.00 64 1013.6
20260903220005 94 207 0.0 0.0 0.00 0.00 0.00 62 1013.7
20260903215504 95 207 0.0 0.0 0.00 0.00 0.00 61 1013.8
20260903215005 95 207 0.0 0.0 0.00 0.00 0.00 59 1013.7
20260903214504 95 207 0.0 0.0 0.00 0.00 0.00 58 1013.7
20260903214005 96 207 0.0 1.0 0.00 0.00 0.00 59 1013.8
20260903213505 96 207 0.0 3.0 0.00 0.00 0.00 57 1013.6
20260903213004 97 207 1.0 3.0 0.00 0.00 0.00 57 1013.6
20260903212504 97 207 0.0 3.0 0.00 0.00 0.00 57 1013.6
20260903212005 97 207 1.0 3.0 0.00 0.00 0.00 55 1013.6
20260903211504 98 199 2.0 3.0 0.00 0.00 0.00 55 1013.6
20260903211005 98 340 0.0 3.0 0.00 0.00 0.00 58 1013.8
20260903210504 98 340 0.0 3.0 0.00 0.00 0.00 57 1013.9
20260903210004 98 340 1.0 3.0 0.00 0.00 0.00 58 1013.9
20260903205505 97 235 1.0 3.0 0.00 0.00 0.00 54 1013.8
20260903205004 97 282 0.0 3.0 0.00 0.00 0.00 57 1013.9
20260903204504 97 229 2.0 3.0 0.00 0.00 0.00 56 1013.9
20260903204005 97 242 2.0 5.0 0.00 0.00 0.00 55 1014.0
20260903203504 98 228 2.0 5.0 0.00 0.00 0.00 54 1014.0
20260903203004 98 230 1.0 5.0 0.00 0.00 0.00 55 1014.0
20260903202504 97 237 2.0 5.0 0.00 0.00 0.00 55 1014.1
20260903202006 98 303 2.0 3.0 0.00 0.00 0.00 55 1014.1
20260903201504 99 326 1.0 3.0 0.00 0.00 0.00 56 1014.2
20260903201005 98 327 2.0 5.0 0.00 0.00 0.00 58 1014.3
20260903200504 97 5 2.0 5.0 0.00 0.00 0.00 60 1014.3
20260903200004 97 219 3.0 6.0 0.00 0.00 0.00 59 1014.5
20260903195504 98 225 3.0 6.0 0.00 0.00 0.00 56 1014.6
20260903195004 98 246 0.0 3.0 0.00 0.00 0.00 57 1014.6
20260903194505 97 246 2.0 3.0 0.00 0.00 0.00 57 1014.7
20260903194005 97 351 2.0 6.0 0.00 0.00 0.00 59 1014.7
20260903193506 97 355 1.0 8.0 0.00 0.00 0.00 58 1014.7
20260903193005 98 350 2.0 8.0 0.00 0.00 0.00 56 1014.8
20260903192504 99 25 3.0 6.0 0.00 0.00 0.00 58 1014.8
20260903192006 99 5 2.0 7.0 0.00 0.00 0.00 58 1014.9
20260903191505 98 5 1.0 7.0 0.00 0.00 0.00 58 1014.9
20260903191004 98 359 2.0 7.0 0.00 0.00 0.00 60 1015.0
20260903190505 98 256 1.0 5.0 0.00 0.00 0.00 61 1015.1
20260903190004 97 108 2.0 5.0 0.00 0.00 0.00 60 1015.1
20260903185504 98 300 1.0 3.0 0.00 0.00 0.00 57 1015.3
20260903185005 98 181 1.0 3.0 0.00 0.00 0.00 59 1015.3
20260903184504 97 229 2.0 3.0 0.00 0.00 0.00 58 1015.4
20260903184005 97 229 2.0 3.0 0.00 0.00 0.00 60 1015.4
20260903183504 98 224 2.0 3.0 0.00 0.00 0.00 60 1015.5
20260903183004 99 355 0.0 3.0 0.00 0.00 0.00 59 1015.6
20260903182504 97 355 1.0 3.0 0.00 0.00 0.00 61 1015.6
20260903182005 97 331 2.0 3.0 0.00 0.00 0.00 61 1015.7
20260903181504 97 238 2.0 3.0 0.00 0.00 0.00 62 1015.8
20260903181004 96 238 1.0 3.0 0.00 0.00 0.00 63 1015.8
20260903180504 97 236 1.0 3.0 0.00 0.00 0.00 63 1015.9
20260903180004 95 9 1.0 3.0 0.00 0.00 0.00 65 1016.1
20260903175504 96 0 1.0 3.0 0.00 0.00 0.00 63 1016.2
20260903175005 96 333 2.0 3.0 0.00 0.00 0.00 61 1016.1
20260903174504 96 300 1.0 3.0 0.00 0.00 0.00 62 1016.1
20260903174005 96 202 1.0 3.0 0.00 0.00 0.00 63 1016.1
20260903173504 95 357 1.0 3.0 0.00 0.00 0.00 65 1016.1
20260903173005 93 12 2.0 3.0 0.00 0.00 0.00 67 1016.2
20260903172504 93 10 1.0 6.0 0.00 0.00 0.00 67 1016.3